Starlink 31215

operational
NORAD ID: 58872 Int'l Des: 2024-019 Owner: SPXS Country: US Constellation: starlink
LEOCIRCULAR

Starlink 31215について

説明を読み込み中...

リアルタイム位置

3D地球を読み込み中...

次回通過

高度履歴

Altitude vs Time

uPlot chart will show altitude changes over time

軌道要素

1 58872U 24019V 25307.81349271 -.00000384 00000-0 -44350-5 0 9996
2 58872 43.0047 239.6098 0001096 282.2646 77.8083 15.27581803 99813
Epoch: Nov 3, 2025 • Age: 19 hours

現在のステータス

高度 494.6 km
速度 7.62 km/s
衛星直下点 -40.68°S, 85.86°W
打ち上げ日 Jan 29, 2024
運用期間 1.7 years
タイプ internet

技術仕様

分類 Payload
質量 730.00 kg
乾燥質量 700.00 kg
総質量 730.00 kg
長さ 0.30 m
直径 4.10 m
スパン 29.00 m
形状 Box + pan
製造者 SPXS
バスタイプ Starlink V2M
フェーズステータス In Orbit
所有者/国 SPXS/US

大規模コンステレーション

Loading constellations...